Showing default

JILIN-01 GAOFEN 3D 29, 52446

Orbit data source: Space-Track

JILIN-01 GAOFEN 3D 29, 52446 is a payload satellite owned by Changguang WJ (CN) in SSO that was launched on Thu, 05 May 2022 UTC via a CHANG ZHENG 2D launch vehicle from the Taiyaun Space Center, China (TSC). Payload-class satellites include a variety of spacecraft equipped with specific instruments for various scientific and technological missions. These include communications satellites like Starlink; space stations such as the ISS; scientific satellites like the Hubble; Earth observation satellites from companies like Planet Labs, Umbra, and HawkEye 360; GPS; miniature CubeSats for education and research; and military/defense satellites.

Loading next visibility...
Identifier
52446, 2022-048D
Orbit
SSO
Country
Flag of CNCN / PRC
Related business
Manufacturer
Changguang WJ
Mission
Operational Commercial Imaging
Bus & Motor
JL-1, Unknown motor
Mass
42 kg wet, 42 kg dry
Launch date (UTC)
2022-05-05 (4 years ago)
Launch vehicle
CHANG ZHENG 2D
Launch site
Taiyaun Space Center, China (TSC)
Object type
Payload
Rocket body
Debris
Shape & HBR
Box + 2 Pan, 0.8 m
Radar Cross Section
2.000 m², Medium (>0.1 m² and < 1m²)

Expand to show TLE details & history
Last TLE update: 7 hours ago

TLE from 7 hours ago
0 JILIN-01 GAOFEN 3D 29
1 52446U 22048D   26163.82296503  .00118058  00000-0  80365-3 0  9998
2 52446  97.5706 277.7232 0000498 240.3619 119.7595 15.74539897228819
Epoch: 2026-06-12T19:45Z
TLE epoch observation values (Epoch: 2026-06-12T19:45:04.178Z)
Latitude
-0.00008°
Longitude
80.30892°
Altitude
349.266 km
Speed
7.699 km/s
True Right ascension
18h 30m 53s
True Declination
0° 00' 00"
Sunlit
Object was in full shadow at epoch
Visualization orbit readout
Latitude
Unknown
Longitude
Unknown
Altitude
Unknown
Speed
Unknown
Apparent Right ascension
Unknown
Apparent Declination
Unknown
Sunlit
N/A
Visualization observer readout
Local Sidereal Time
12:47:17
Azimuth
Unknown
Elevation
Unknown
Doppler factor
Unknown
Orbital elements
Apogee altitude
343.176 km
Perigee altitude
342.507 km
Semi-major axis
6,720.979 km
Eccentricity
0.00005
Inclination
97.5706°
RAAN
277.7232°
Arg. of periapsis
240.3619°
True anomaly
119.76445°
Mean anomaly
119.7595°
Eccentric anomaly
119.76198°
Mean motion
3.93908 °/min
Orbital period
91.39 mins
BSTAR
0.00080365
Loading maneuver chart data...
Computing Atmospheric mass density...
Loading historical data...
Loading historical data...
Loading historical data...
Loading historical data...
Loading historical data...
Loading historical data...
Loading historical data...

Documentation

Showing up to 5 results
|